Regional Weather Roundup
Issued by NWS

Home | Current Version | Previous Version | Graphics & Text | Print | Product List | Glossary On
Versions: 1 2 3 4 5 6 7 8 9 10 11 12 13 14 15 16 17 18 19 20 21 22 23 24 25 26 27 28 29 30 31 32 33 34 35 36 37 38 39 40 41 42 43 44 45 46 47 48 49 50
000
ASUS43 KMKX 250121
RWRWI

WISCONSIN REGIONAL WEATHER ROUNDUP
NATIONAL WEATHER SERVICE MILWAUKEE/SULLIVAN WI
800 PM CDT THU APR 24 2014

NOTE: "FAIR" INDICATES FEW OR NO CLOUDS BELOW 12,000 FEET WITH NO
SIGNIFICANT WEATHER AND/OR OBSTRUCTIONS TO VISIBILITY.

WIZ001-002-006>008-014>016-023>028-250200-
NORTHWEST WISCONSIN

CITY           SKY/WX    TMP DP  RH WIND       PRES   REMARKS
SUPERIOR ARPT  MIX PCPN  32  32 100 NE10G16   29.73F WCI  24
ASHLAND        CLOUDY    34  34 100 NE7       29.73F FOG     WCI  28
HAYWARD        LGT RAIN  37  32  82 E8        29.67F WCI  31
SIREN          CLOUDY    39  38  98 CALM      29.68R FOG
RICE LAKE      DRIZZLE   42  41  95 CALM      29.68S
LADYSMITH      DRIZZLE   41  40  96 SE7       29.69F
EAU CLAIRE     CLOUDY    43  43 100 CALM      29.67R FOG
MENOMONIE      CLOUDY    43  43  99 SW3       29.68R FOG
NEW RICHMOND   CLOUDY    42  42 100 W7        29.69R FOG
OSCEOLA        CLOUDY    43  43 100 W7        29.72R
$$

WIZ003>005-009-010-017-018-250200-
NORTH CENTRAL WISCONSIN

CITY           SKY/WX    TMP DP  RH WIND       PRES   REMARKS
WOODRUFF       LGT RAIN  37  35  93 SE12G21   29.72F WCI  29
RHINELANDER    LGT RAIN  35  34  96 E17G25    29.74F FOG     WCI  25
EAGLE RIVER    LGT RAIN  33  33  99 SE12G21   29.75S WCI  25
LAND O LAKES   MIX PCPN  34  33  96 SE13G20   29.77F WCI  25
PHILLIPS       RAIN      38  37  95 SE9G24    29.68F WCI  31
TOMAHAWK       RAIN      37  35  94 SE9G18    29.71F WCI  30
MEDFORD        LGT RAIN  39  38  98 SE13G21   29.68S WCI  31
MERRILL        LGT RAIN  38  37  96 SE15G22   29.71S WCI  30
$$

WIZ029-030-035-036-043>047-250200-
CENTRAL WISCONSIN

CITY           SKY/WX    TMP DP  RH WIND       PRES   REMARKS
WAUSAU         LGT RAIN  40  39  97 SE14G25   29.71S FOG     WCI  32
MOSINEE        LGT RAIN  39  39 100 E14G21    29.73F WCI  31
MARSHFIELD     LGT RAIN  41  39  93 SE14      29.68S FOG
STEVENS POINT  LGT RAIN  39  37  91 SE13G18   29.74R WCI  32
WAUPACA        LGT RAIN  43  39  87 NE5       29.77R
WAUTOMA        LGT RAIN  43  41  93 NE6       29.73R
WISC RAPIDS    LGT RAIN  42  41  96 E9        29.72S
CAMP DOUGLAS   LGT RAIN  49  49 100 E8        29.67S FOG
$$

WIZ011>013-019>022-031-037>040-048>050-250200-
NORTHEAST WISCONSIN

CITY           SKY/WX    TMP DP  RH WIND       PRES   REMARKS
ANTIGO         LGT RAIN  36  35  96 SE18G24   29.76F WCI  25
STURGEON BAY   CLOUDY    39  34  81 E8        29.82F WCI  34
GREEN BAY      LGT RAIN  41  37  86 E9        29.78F
MANITOWOC      LGT RAIN  42  34  73 SE13      29.77F
APPLETON       LGT RAIN  43  36  75 E6        29.76S
CLINTONVILLE   LGT RAIN  39  37  93 NE6       29.79R WCI  35
OSHKOSH        LGT RAIN  46  34  62 SE7       29.73R
$$

WIZ032>034-041-042-053>061-250200-
SOUTHWEST WISCONSIN

CITY           SKY/WX    TMP DP  RH WIND       PRES   REMARKS
LA CROSSE      CLOUDY    47  46  97 CALM      29.68R FOG
SPARTA         DRIZZLE   46  46  99 CALM      29.67S
VIROQUA        CLOUDY    48  48 100 S6        29.66S
BOSCOBEL       LGT RAIN  51  49  92 CALM      29.67S FOG
PRAIRIE DU CHI CLOUDY    51  49  94 CALM      29.67R FOG
PLATTEVILLE    CLOUDY    50  49  95 NE6       29.68R
$$

WIZ056-057-062-063-064-067-068-250200-
SOUTH CENTRAL WISCONSIN

CITY           SKY/WX    TMP DP  RH WIND       PRES   REMARKS
BARABOO/DELLS  DRIZZLE   47  46  93 E3        29.69F
LONE ROCK      LGT RAIN  50  49  96 E7        29.67F FOG
WATERTOWN      CLOUDY    51  32  48 SE12G20   29.67S
MADISON        LGT RAIN  50  45  83 W6        29.70R
MIDDLETON      CLOUDY    50  48  92 N5        29.70R
MONROE         DRIZZLE   52  52 100 S6        29.66R
JANESVILLE     NOT AVBL
$$

WIZ051-052-058>065-066-070>072-250200-
SOUTHEAST WISCONSIN

CITY           SKY/WX    TMP DP  RH WIND       PRES   REMARKS
MILWAUKEE      CLOUDY    47  32  56 SE15      29.74F
WAUKESHA       CLOUDY    50  30  46 E16       29.73F
MILWAUKEE/TIMM CLOUDY    48  28  46 SE14G20   29.74F
RACINE         CLOUDY    48  31  51 SE17G23   29.75F
BURLINGTON     CLOUDY    50  31  48 MISG      29.71F
KENOSHA        CLOUDY    48  32  53 E10       29.73F
FOND DU LAC    LGT RAIN  46  34  62 SE17      29.70F
SHEBOYGAN      LGT RAIN  47  30  51 SE14G23   29.76F
WEST BEND      CLOUDY    45  32  61 E12       29.72F
JUNEAU         CLOUDY    49  30  47 E16G24    29.69F
$$

LSZ147-162-250200-
LAKE SUPERIOR

STATION/POSITION TIME  TEMP    WIND        PRES    WAVE
                       AIR SEA DIR/SP/G            HT/PER
                 (UTC) (F)     (DEG/KT/KT) (MB)    (FT/S)
DEVILS ISLAND    0100   33     100/ 22/ 25 1008.6F
PORT WING        0000   36      60/  2/  4 1007.5S
SAXON HARBOR     0000           CALM  /  5 1007.5F
$$

LMZ867-665-643>646-250200-
LAKE MICHIGAN

STATION/POSITION TIME  TEMP    WIND        PRES    WAVE
                       AIR SEA DIR/SP/G            HT/PER
                 (UTC) (F)     (DEG/KT/KT) (MB)    (FT/S)
NORTHPORT PIER   0020   38      70/ 19/ 21 1010.8F
SISTER BAY       0023   40      90/ 11/ 19   N/A
KEWAUNEE LAKESHO 0000   38      80/ 11/ 14 1009.9F
SHEBOYGAN LAKESH 0100   45     130/ 21/ 23 1008.1F
PORT WASHINGTON  0000   42     130/  6/ 10 1009.1S
MILWAUKEE LAKESH 0100   44     120/ 19/ 20   N/A
KENOSHA   LAKESH 0100   45     120/ 20/ 24   N/A
$$

TC  - TEMPERATURE IN CELSIUS
VSB - VISIBILITY IN STATUTE MILES
WCI - WIND CHILL INDEX
HX  - HEAT INDEX




USA.gov is the U.S. government's official web portal to all federal, state and local government web resources and services.